Powrót do katalogu

STARLINK-34857

AktywnyŁącznośćVLEO
NORAD 65102·PAYLOAD·🇺🇸 United States

Wystrzelony Aug 4, 2025 z Cape Canaveral Space Force Station

Loading…

Następne Przeloty (najbliższe 24 godziny)

TLE

ŚwieżeSource: CelesTrak SupGP

Epoka: Sep 15, 2026, 03:06 UTC

1 65102C 25167AA  26258.12965278 -.00046147  00000+0 -13636-2 0  2580
2 65102  53.1585 219.1733 0001552  91.9535 146.1152 15.34409180    10

Śledź STARLINK-34857 w czasie rzeczywistym z AllMySat

Download on the App Store